星链-5077 (STARLINK-5077 )

导读

STARLINK-5077是美国SpaceX公司星链(Starlink)星座的第二代卫星,于2023年1月31日发射入轨,属于星链全球卫星互联网组网的组成部分。星链项目旨在构建覆盖全球的低轨卫星互联网,为偏远地区、海洋和空中提供高速宽带接入,STARLINK-5077也配备星间激光通信终端,可实现卫星间数据传输,支撑全球无缝网络覆盖,助力星链完成低轨星座部署,提升全球网络服务能力。

基本信息
目录编号:
55391
目录名称:
STARLINK-5077
国际标识:
2023-014A
轨道中心:
EARTH
卫星名称:
星链-5077
卫星全名:
星链-5077 (STARLINK-5077 )
卫星状态:
已陨落 最后检测时间 2025-05-02
发射日期:
2023-01-31 UTC
国别 :
美国 (US)
星等 :
--
该卫星已列入 空间交会检测服务 Space Conjunction Data Service (SCDS) ,当前飞行风险评估等级: 无高风险
轨道信息
数据来源 国际轨道数据
星历时间: 2025-05-02T07:25:24+0800
轨道信息已过期498天
半长轴: 6520.632km
偏心率: 0.0011871
轨道倾角: 69.987°
近地点辐角 227.759°
升交点赤经 107.970°
平近点角 160.428°
近地点: 134.756km
远地点: 150.238km
周期: 87.336分钟
每日圈数: 16.48801
详细信息
固有亮度:
5
最大亮度:
2.5
卫星平台:
Starlink v1.5
覆盖范围:
全球
运营商:
太空探索技术公司
运营商所在国:
美国
制造商(研发单位):
太空探索技术公司
制造商所在国:
美国
使用方式:
暂无
卫星简介
星链(Starlink)计划是由太空探索技术公司(SpaceX)提出的一个巨型低轨卫星互联网星座项目,计划在2019年至2024年间在太空搭建由约1.2万颗卫星组成的“星链”网络,其中1584颗将部署在地球上空550千米处的近地轨道,并从2020年开始工作。该卫星仍在工作。
与全量物体交会距离演化趋势
与全量物体交会风险概率演化趋势